Tracking 32139 objects as of 18-Nov-2025
HD Live streaming from Space Station
objects crossing your sky now

STARLINK-35145

Track STARLINK-35145 now!
10-day predictions
STARLINK-35145 is classified as:


NORAD ID: 65685
Int'l Code: 2025-212K
Perigee: 481.6 km
Apogee: 483.0 km
Inclination: 53.2 °
Period: 94.1 minutes
Semi major axis: 6853 km
RCS: Unknown
Launch date: September 21, 2025
Source: United States (US)
Launch site: AIR FORCE WESTERN TEST RANGE (AFWTR)
Your satellite tracking list
Your tracking list is empty




NASA's NSSDC Master Catalog

Two Line Element Set (TLE):
1 65685U 25212K   25321.50341734  .00036505  00000-0  12381-2 0  9998
2 65685  53.1581 147.0307 0001021  86.8383 273.2734 15.30212482 10015
Source of the keplerian elements: AFSPC